Weather History for Eagle, AK

Change the Weather History Date:

Tuesday, May 21, 2013

  Actual Average (PABN) Record (PABN)
Temperature  
Mean Temperature 42 °F -  
Max Temperature 61 °F 49 °F 62 °F (2002)
Min Temperature 23 °F 38 °F 28 °F (2013)
Degree Days  
Heating Degree Days 24    
Moisture  
Dew Point 18 °F    
Average Humidity 40    
Maximum Humidity 81    
Minimum Humidity 18    
Precipitation  
Precipitation 0.00 in - - ()
Sea Level Pressure  
Sea Level Pressure 30.39 in    
Wind  
Wind Speed 3 mph (SE)    
Max Wind Speed 12 mph    
Max Gust Speed 18 mph    
Visibility 10 miles    
Events      
Averages and records for this station are not official NWS values.
T = Trace of Precipitation, MM = Missing Value Source: NWS Daily Summary

Daily Weather History Graph

Daily Weather History Graph

Search for Another Location

Airport:

Trip Planner

Search our weather history database for the weather conditions in past years. The results will help you decide how hot, cold, wet, or windy it might be!

Date:

Astronomy

May. 21, 2013 Rise Set
Actual Time 3:40 AM AKDT 11:04 PM AKDT
Civil Twilight 1:53 AM AKDT 12:48 AM AKDT
Nautical Twilight Sun does not rise Sun does not rise
Astronomical Twilight Sun does not rise Sun does not rise
Moon 5:57 PM AKDT (5/21) 2:58 AM AKDT (5/21)
Length of Visible Light 22h 55m
Length of Day
19h 23m
Waxing Gibbous, 85% of the Moon is Illuminated
May 21
Waxing Gibbous
May 24
Full
May 31
Last Quarter
Jun 8
New
Jun 16
First Quarter

Hourly Weather History & Observations

Time (AKDT) Temp. Windchill Dew Point Humidity Pressure Visibility Wind Dir Wind Speed Gust Speed Precip Events Conditions
12:53 AM 28.0 °F - 18.0 °F 66% 30.48 in 10.0 mi Calm Calm - N/A   Clear
1:53 AM 26.1 °F - 19.0 °F 75% 30.52 in 10.0 mi Calm Calm - N/A   Clear
2:53 AM 24.1 °F - 18.0 °F 77% 30.52 in 10.0 mi Calm Calm - N/A   Clear
3:53 AM 23.0 °F - 18.0 °F 81% 30.52 in 10.0 mi Calm Calm - N/A   Clear
4:53 AM 24.1 °F - 19.0 °F 81% 30.52 in 10.0 mi Calm Calm - N/A   Clear
5:53 AM 30.0 °F - 19.9 °F 66% 30.51 in 10.0 mi Calm Calm - N/A   Clear
6:53 AM 34.0 °F - 21.0 °F 59% 30.50 in 10.0 mi Calm Calm - N/A   Clear
7:53 AM 43.0 °F 36.8 °F 18.0 °F 37% 30.49 in 10.0 mi SE 11.5 mph 17.3 mph N/A   Clear
8:53 AM 45.0 °F 39.7 °F 16.0 °F 31% 30.48 in 10.0 mi SE 10.4 mph 18.4 mph N/A   Clear
9:53 AM 48.9 °F - 18.0 °F 29% 30.46 in 10.0 mi ESE 9.2 mph - N/A   Clear
10:53 AM 52.0 °F - 18.0 °F 26% 30.44 in 10.0 mi ESE 9.2 mph 18.4 mph N/A   Clear
11:53 AM 54.0 °F - 18.0 °F 24% 30.42 in 10.0 mi Variable 6.9 mph - N/A   Clear
12:53 PM 55.9 °F - 18.0 °F 23% 30.39 in 10.0 mi Variable 6.9 mph - N/A   Clear
1:53 PM 55.9 °F - 18.0 °F 23% 30.38 in 10.0 mi Calm Calm - N/A   Clear
2:53 PM 57.9 °F - 18.0 °F 21% 30.35 in 10.0 mi Variable 3.5 mph - N/A   Clear
3:53 PM 59.0 °F - 18.0 °F 20% 30.33 in 10.0 mi Variable 4.6 mph - N/A   Clear
4:53 PM 59.0 °F - 17.1 °F 20% 30.31 in 10.0 mi WSW 8.1 mph - N/A   Clear
5:53 PM 60.1 °F - 17.1 °F 19% 30.30 in 10.0 mi Calm Calm - N/A   Clear
6:53 PM 60.1 °F - 16.0 °F 18% 30.27 in 10.0 mi Variable 4.6 mph - N/A   Clear
7:53 PM 60.1 °F - 16.0 °F 18% 30.25 in 10.0 mi Calm Calm - N/A   Clear
8:53 PM 57.9 °F - 16.0 °F 19% 30.24 in 10.0 mi Variable 3.5 mph - N/A   Clear
9:53 PM 52.0 °F - 19.0 °F 27% 30.24 in 10.0 mi South 3.5 mph - N/A   Clear
10:53 PM 37.9 °F - 19.9 °F 48% 30.25 in 10.0 mi Calm Calm - N/A   Clear
11:53 PM 32.0 °F - 19.0 °F 59% 30.25 in 10.0 mi Calm Calm - N/A   Clear